Hourly Weather Rushkovo

Today, 15 April, Thursday

Time Temperature Precipitation Wind Pressure Humidity
00:00 +3°C° 0.1 mm 3 mps 753 mmHg 92%
01:00 +3°C° 0.1 mm 4 mps 753 mmHg 92%
02:00 +3°C° 0 mm 4 mps 753 mmHg 92%
03:00 +3°C° 0 mm 4 mps 753 mmHg 91%
04:00 +3°C° 0 mm 4 mps 753 mmHg 89%
05:00 +3°C° 0 mm 4 mps 753 mmHg 88%
06:00 +3°C° 0 mm 4 mps 753 mmHg 87%
07:00 +3°C° 0 mm 4 mps 753 mmHg 86%
08:00 +4°C° 0 mm 4 mps 753 mmHg 85%
09:00 +4°C° 0.3 mm 4 mps 753 mmHg 86%
10:00 +3°C° 0.3 mm 5 mps 753 mmHg 88%
11:00 +3°C° 0.3 mm 5 mps 753 mmHg 89%
12:00 +3°C° 0.5 mm 5 mps 753 mmHg 90%
13:00 +3°C° 0.5 mm 5 mps 753 mmHg 90%
14:00 +3°C° 0.5 mm 5 mps 753 mmHg 91%
15:00 +3°C° 0.1 mm 5 mps 753 mmHg 90%
16:00 +5°C° 0.1 mm 5 mps 753 mmHg 89%
17:00 +5°C° 0.1 mm 5 mps 753 mmHg 88%
18:00 +5°C° 0.3 mm 5 mps 753 mmHg 88%
19:00 +5°C° 0.3 mm 5 mps 753 mmHg 89%
20:00 +5°C° 0.3 mm 5 mps 752 mmHg 89%
21:00 +5°C° 0.1 mm 5 mps 752 mmHg 89%
22:00 +5°C° 0.1 mm 5 mps 752 mmHg 89%
23:00 +5°C° 0.1 mm 5 mps 752 mmHg 89%

Tomorrow, 16 April, Friday

Time Temperature Precipitation Wind Pressure Humidity
00:00 +5°C° 0.1 mm 5 mps 752 mmHg 89%
01:00 +5°C° 0.1 mm 5 mps 752 mmHg 90%
02:00 +5°C° 0.1 mm 5 mps 752 mmHg 90%
03:00 +5°C° 0.1 mm 5 mps 752 mmHg 90%
04:00 +5°C° 0.1 mm 5 mps 752 mmHg 90%
05:00 +5°C° 0.1 mm 5 mps 752 mmHg 90%
06:00 +5°C° 0 mm 4 mps 752 mmHg 90%
07:00 +6°C° 0 mm 4 mps 752 mmHg 89%
08:00 +6°C° 0 mm 4 mps 753 mmHg 89%
09:00 +7°C° 0.1 mm 4 mps 753 mmHg 88%
10:00 +7°C° 0.1 mm 4 mps 753 mmHg 86%
11:00 +8°C° 0.1 mm 4 mps 754 mmHg 85%
12:00 +8°C° 0 mm 4 mps 754 mmHg 83%
13:00 +10°C° 0 mm 4 mps 754 mmHg 81%
14:00 +10°C° 0 mm 5 mps 754 mmHg 79%
15:00 +9°C° 0 mm 5 mps 754 mmHg 79%
16:00 +9°C° 0 mm 5 mps 754 mmHg 79%
17:00 +9°C° 0 mm 5 mps 754 mmHg 80%
18:00 +9°C° 0.1 mm 5 mps 754 mmHg 81%
19:00 +10°C° 0.1 mm 4 mps 754 mmHg 82%
20:00 +8°C° 0.1 mm 4 mps 754 mmHg 83%
21:00 +8°C° 0.1 mm 4 mps 755 mmHg 83%
22:00 +8°C° 0.1 mm 4 mps 755 mmHg 84%
23:00 +8°C° 0.1 mm 4 mps 755 mmHg 84%

Day after tomorrow, 17 April, Saturday

Time Temperature Precipitation Wind Pressure Humidity
00:00 +7°C° 0 mm 4 mps 755 mmHg 84%
01:00 +7°C° 0 mm 4 mps 755 mmHg 85%
02:00 +7°C° 0 mm 4 mps 755 mmHg 85%
03:00 +7°C° 0 mm 4 mps 755 mmHg 86%
04:00 +6°C° 0 mm 4 mps 755 mmHg 87%
05:00 +7°C° 0 mm 3 mps 756 mmHg 88%
06:00 +7°C° 0 mm 3 mps 756 mmHg 85%
07:00 +7°C° 0 mm 4 mps 756 mmHg 82%
08:00 +7°C° 0 mm 4 mps 757 mmHg 79%
09:00 +8°C° 0 mm 4 mps 757 mmHg 77%
10:00 +10°C° 0 mm 3 mps 757 mmHg 75%
11:00 +10°C° 0 mm 3 mps 757 mmHg 74%
12:00 +11°C° 0 mm 4 mps 757 mmHg 72%
13:00 +11°C° 0 mm 4 mps 757 mmHg 70%
14:00 +12°C° 0 mm 4 mps 757 mmHg 68%
15:00 +12°C° 0 mm 4 mps 757 mmHg 68%
16:00 +12°C° 0 mm 3 mps 757 mmHg 68%
17:00 +12°C° 0 mm 3 mps 757 mmHg 68%
18:00 +11°C° 0 mm 3 mps 757 mmHg 71%
19:00 +10°C° 0 mm 3 mps 757 mmHg 74%
20:00 +9°C° 0 mm 3 mps 757 mmHg 76%
21:00 +8°C° 0 mm 3 mps 757 mmHg 78%
22:00 +8°C° 0 mm 3 mps 757 mmHg 79%
23:00 +7°C° 0 mm 3 mps 757 mmHg 80%

18 April, Sunday

Time Temperature Precipitation Wind Pressure Humidity
00:00 +5°C° 0 mm 3 mps 757 mmHg 80%
01:00 +5°C° 0 mm 3 mps 757 mmHg 79%
02:00 +4°C° 0 mm 3 mps 757 mmHg 79%
03:00 +4°C° 0 mm 3 mps 757 mmHg 80%
04:00 +3°C° 0 mm 3 mps 757 mmHg 81%
05:00 +3°C° 0 mm 3 mps 757 mmHg 82%
06:00 +4°C° 0 mm 3 mps 757 mmHg 75%
07:00 +7°C° 0 mm 3 mps 757 mmHg 68%
08:00 +7°C° 0 mm 4 mps 757 mmHg 61%
09:00 +10°C° 0 mm 4 mps 757 mmHg 56%
10:00 +11°C° 0 mm 4 mps 757 mmHg 50%
11:00 +13°C° 0 mm 4 mps 757 mmHg 45%
12:00 +13°C° 0 mm 4 mps 757 mmHg 42%
13:00 +14°C° 0 mm 4 mps 757 mmHg 40%
14:00 +15°C° 0 mm 4 mps 757 mmHg 38%
15:00 +14°C° 0 mm 4 mps 757 mmHg 40%
16:00 +14°C° 0 mm 3 mps 757 mmHg 42%
17:00 +14°C° 0 mm 3 mps 757 mmHg 44%
18:00 +12°C° 0 mm 3 mps 757 mmHg 51%
19:00 +10°C° 0 mm 2 mps 758 mmHg 58%
20:00 +8°C° 0 mm 2 mps 758 mmHg 65%
21:00 +7°C° 0 mm 2 mps 758 mmHg 68%
22:00 +7°C° 0 mm 2 mps 758 mmHg 71%
23:00 +6°C° 0 mm 2 mps 758 mmHg 74%

19 April, Monday

Time Temperature Precipitation Wind Pressure Humidity
00:00 +5°C° 0 mm 2 mps 758 mmHg 76%
01:00 +5°C° 0 mm 2 mps 759 mmHg 79%
02:00 +5°C° 0 mm 2 mps 759 mmHg 81%
03:00 +4°C° 0 mm 2 mps 759 mmHg 82%
04:00 +4°C° 0 mm 2 mps 759 mmHg 83%
05:00 +4°C° 0 mm 2 mps 759 mmHg 84%
06:00 +5°C° 0 mm 2 mps 759 mmHg 77%
07:00 +7°C° 0 mm 2 mps 759 mmHg 70%
08:00 +9°C° 0 mm 2 mps 759 mmHg 62%
09:00 +10°C° 0 mm 3 mps 759 mmHg 56%
10:00 +12°C° 0 mm 3 mps 759 mmHg 50%
11:00 +13°C° 0 mm 3 mps 759 mmHg 44%
12:00 +14°C° 0 mm 3 mps 758 mmHg 42%
13:00 +14°C° 0 mm 3 mps 758 mmHg 41%
14:00 +16°C° 0 mm 3 mps 758 mmHg 39%
15:00 +14°C° 0 mm 3 mps 758 mmHg 42%
16:00 +14°C° 0 mm 3 mps 758 mmHg 45%
17:00 +13°C° 0 mm 3 mps 758 mmHg 48%
18:00 +13°C° 0 mm 2 mps 758 mmHg 55%
19:00 +10°C° 0 mm 2 mps 758 mmHg 62%
20:00 +9°C° 0 mm 2 mps 758 mmHg 69%
21:00 +8°C° 0 mm 2 mps 758 mmHg 72%
22:00 +7°C° 0 mm 2 mps 758 mmHg 75%
23:00 +7°C° 0 mm 2 mps 758 mmHg 78%

20 April, Tuesday

Time Temperature Precipitation Wind Pressure Humidity
00:00 +6°C° 0 mm 2 mps 758 mmHg 80%
01:00 +6°C° 0 mm 2 mps 758 mmHg 81%
02:00 +5°C° 0 mm 2 mps 758 mmHg 83%
03:00 +5°C° 0 mm 2 mps 758 mmHg 84%
04:00 +4°C° 0 mm 2 mps 758 mmHg 84%
05:00 +4°C° 0 mm 2 mps 758 mmHg 85%
06:00 +5°C° 0 mm 2 mps 757 mmHg 78%
07:00 +7°C° 0 mm 3 mps 757 mmHg 70%
08:00 +8°C° 0 mm 3 mps 757 mmHg 63%
09:00 +9°C° 0 mm 3 mps 757 mmHg 55%
10:00 +10°C° 0 mm 4 mps 757 mmHg 48%
11:00 +11°C° 0 mm 4 mps 756 mmHg 41%
12:00 +12°C° 0 mm 4 mps 756 mmHg 39%
13:00 +12°C° 0 mm 4 mps 755 mmHg 36%
14:00 +12°C° 0 mm 5 mps 755 mmHg 33%
15:00 +12°C° 0 mm 4 mps 754 mmHg 34%
16:00 +12°C° 0 mm 4 mps 754 mmHg 35%
17:00 +11°C° 0 mm 4 mps 754 mmHg 36%
18:00 +9°C° 0 mm 3 mps 754 mmHg 43%
19:00 +8°C° 0 mm 3 mps 754 mmHg 49%
20:00 +6°C° 0 mm 2 mps 754 mmHg 56%
21:00 +5°C° 0 mm 2 mps 753 mmHg 59%
22:00 +5°C° 0 mm 2 mps 753 mmHg 62%
23:00 +4°C° 0 mm 2 mps 752 mmHg 65%
Show more